TimeCST,TemperatureF,Dew PointF,Humidity,Sea Level PressureIn,VisibilityMPH,Wind Direction,Wind SpeedMPH,Gust SpeedMPH,PrecipitationIn,Events,Conditions,WindDirDegrees,DateUTC
12:15 AM,-11.2,-16.6,77,30.09,10.0,SW,12.7,-,N/A,,Partly Cloudy,230,2013-01-01 06:15:00
12:35 AM,-11.2,-16.6,77,30.09,10.0,WSW,10.4,-,N/A,,Partly Cloudy,240,2013-01-01 06:35:00
12:55 AM,-11.2,-16.6,77,30.08,10.0,SW,12.7,-,N/A,,Mostly Cloudy,220,2013-01-01 06:55:00
1:15 AM,-11.2,-14.8,84,30.08,10.0,WSW,11.5,-,N/A,,Overcast,240,2013-01-01 07:15:00
1:35 AM,-9.4,-14.8,77,30.08,10.0,WSW,11.5,-,N/A,,Overcast,240,2013-01-01 07:35:00
1:55 AM,-9.4,-13.0,84,30.08,5.0,WSW,12.7,-,N/A,,Haze,250,2013-01-01 07:55:00
2:15 AM,-7.6,-11.2,84,30.08,0.8,WSW,11.5,-,N/A,,Overcast,250,2013-01-01 08:15:00
2:35 AM,-4.0,-9.4,78,30.07,1.0,WSW,10.4,-,N/A,Snow,Light Snow,240,2013-01-01 08:35:00
3:15 AM,-0.4,-4.0,85,30.05,1.5,WSW,13.8,-,N/A,,Overcast,250,2013-01-01 09:15:00
3:35 AM,-0.4,-2.2,92,30.05,4.0,West,12.7,-,N/A,,Overcast,260,2013-01-01 09:35:00
3:55 AM,1.4,-0.4,92,30.04,5.0,WSW,13.8,-,N/A,,Overcast,250,2013-01-01 09:55:00
4:15 AM,1.4,-0.4,92,30.04,5.0,WSW,12.7,-,N/A,,Overcast,250,2013-01-01 10:15:00
4:35 AM,5.0,1.4,85,30.03,8.0,WSW,12.7,-,N/A,,Overcast,250,2013-01-01 10:35:00
4:55 AM,5.0,1.4,85,30.03,8.0,WSW,11.5,-,N/A,,Overcast,250,2013-01-01 10:55:00
5:15 AM,5.0,3.2,92,30.02,8.0,WSW,11.5,-,N/A,,Overcast,250,2013-01-01 11:15:00
5:35 AM,5.0,3.2,92,30.02,7.0,WSW,15.0,-,N/A,,Overcast,240,2013-01-01 11:35:00
5:55 AM,6.8,5.0,92,30.01,7.0,WSW,16.1,-,N/A,,Overcast,250,2013-01-01 11:55:00
6:15 AM,6.8,5.0,92,30.01,6.0,WSW,13.8,-,N/A,,Overcast,240,2013-01-01 12:15:00
6:35 AM,6.8,5.0,92,30.00,6.0,SW,12.7,-,N/A,,Overcast,230,2013-01-01 12:35:00
6:55 AM,6.8,5.0,92,30.00,5.0,SW,12.7,-,N/A,,Overcast,230,2013-01-01 12:55:00
7:15 AM,6.8,5.0,92,29.99,6.0,SW,12.7,-,N/A,,Overcast,230,2013-01-01 13:15:00
7:35 AM,5.0,3.2,92,29.99,6.0,SW,12.7,-,N/A,,Overcast,230,2013-01-01 13:35:00
8:15 AM,3.2,-0.4,85,29.97,5.0,SW,12.7,-,N/A,,Overcast,220,2013-01-01 14:15:00
8:35 AM,1.4,-0.4,92,29.97,8.0,SW,11.5,-,N/A,,Scattered Clouds,230,2013-01-01 14:35:00
9:15 AM,-0.4,-4.0,85,29.96,8.0,SSW,9.2,-,N/A,,Mostly Cloudy,210,2013-01-01 15:15:00
9:35 AM,-0.4,-4.0,85,29.96,8.0,SW,9.2,-,N/A,,Overcast,220,2013-01-01 15:35:00
9:55 AM,-0.4,-4.0,85,29.96,8.0,SW,10.4,-,N/A,,Overcast,220,2013-01-01 15:55:00
10:15 AM,-0.4,-2.2,92,29.95,9.0,SW,13.8,-,N/A,,Overcast,230,2013-01-01 16:15:00
10:35 AM,-0.4,-2.2,92,29.94,8.0,SW,13.8,-,N/A,,Overcast,230,2013-01-01 16:35:00
10:55 AM,1.4,-0.4,92,29.93,8.0,SW,16.1,-,N/A,,Scattered Clouds,220,2013-01-01 16:55:00
11:15 AM,1.4,-0.4,92,29.92,3.0,SW,18.4,-,N/A,,Mostly Cloudy,220,2013-01-01 17:15:00
11:35 AM,3.2,-0.4,85,29.91,1.2,SW,18.4,-,N/A,,Mostly Cloudy,230,2013-01-01 17:35:00
12:15 PM,5.0,1.4,85,29.89,2.0,SW,19.6,-,N/A,,Overcast,230,2013-01-01 18:15:00
12:35 PM,5.0,3.2,92,29.89,2.5,SW,18.4,-,N/A,,Overcast,230,2013-01-01 18:35:00
12:55 PM,6.8,5.0,92,29.87,5.0,SW,19.6,-,N/A,,Overcast,230,2013-01-01 18:55:00
1:15 PM,6.8,5.0,92,29.85,3.0,SW,20.7,26.5,N/A,,Overcast,230,2013-01-01 19:15:00
1:35 PM,8.6,6.8,92,29.85,5.0,SW,18.4,-,N/A,,Overcast,230,2013-01-01 19:35:00
1:55 PM,8.6,6.8,92,29.84,7.0,SW,17.3,-,N/A,,Overcast,230,2013-01-01 19:55:00
2:15 PM,8.6,6.8,92,29.84,6.0,SW,19.6,-,N/A,,Overcast,230,2013-01-01 20:15:00
2:35 PM,8.6,6.8,92,29.83,9.0,SW,17.3,-,N/A,,Mostly Cloudy,230,2013-01-01 20:35:00
3:15 PM,8.6,6.8,92,29.81,10.0,SW,18.4,-,N/A,,Clear,220,2013-01-01 21:15:00
3:35 PM,8.6,6.8,92,29.81,10.0,SW,17.3,-,N/A,,Partly Cloudy,220,2013-01-01 21:35:00
3:55 PM,8.6,6.8,92,29.80,10.0,SW,18.4,-,N/A,,Scattered Clouds,220,2013-01-01 21:55:00
4:15 PM,8.6,6.8,92,29.81,8.0,SW,18.4,-,N/A,,Mostly Cloudy,220,2013-01-01 22:15:00
4:35 PM,10.4,8.6,92,29.81,8.0,SW,17.3,21.9,N/A,,Mostly Cloudy,230,2013-01-01 22:35:00
4:55 PM,10.4,8.6,92,29.80,6.0,SW,16.1,-,N/A,,Mostly Cloudy,230,2013-01-01 22:55:00
5:15 PM,10.4,10.4,100,29.80,6.0,SW,15.0,-,N/A,,Mostly Cloudy,230,2013-01-01 23:15:00
5:35 PM,12.2,10.4,92,29.80,8.0,WSW,16.1,-,N/A,,Mostly Cloudy,240,2013-01-01 23:35:00
5:55 PM,14.0,12.2,93,29.79,9.0,WSW,19.6,-,N/A,,Mostly Cloudy,240,2013-01-01 23:55:00
6:15 PM,14.0,14.0,100,29.79,5.0,WSW,19.6,-,N/A,Snow,Light Snow,240,2013-01-02 00:15:00
6:35 PM,14.0,14.0,100,29.78,3.0,WSW,18.4,-,0.02,Snow,Light Snow,240,2013-01-02 00:35:00
6:55 PM,15.8,14.0,93,29.78,2.0,WSW,18.4,-,0.08,Snow,Light Snow,240,2013-01-02 00:55:00
7:15 PM,15.8,15.8,100,29.77,10.0,WSW,17.3,-,N/A,,Partly Cloudy,250,2013-01-02 01:15:00
7:35 PM,15.8,15.8,100,29.76,10.0,WSW,18.4,-,N/A,,Partly Cloudy,250,2013-01-02 01:35:00
7:55 PM,17.6,15.8,93,29.76,10.0,WSW,16.1,-,N/A,,Mostly Cloudy,240,2013-01-02 01:55:00
8:15 PM,17.6,17.6,100,29.76,9.0,WSW,17.3,-,N/A,Snow,Light Snow,250,2013-01-02 02:15:00
8:35 PM,17.6,17.6,100,29.75,4.0,WSW,17.3,-,N/A,Snow,Light Snow,250,2013-01-02 02:35:00
8:55 PM,17.6,17.6,100,29.74,3.0,WSW,16.1,-,N/A,Snow,Light Snow,250,2013-01-02 02:55:00
9:15 PM,19.4,19.4,100,29.74,3.0,WSW,15.0,-,N/A,Snow,Light Snow,250,2013-01-02 03:15:00
9:35 PM,19.4,19.4,100,29.74,10.0,West,17.3,-,N/A,,Mostly Cloudy,260,2013-01-02 03:35:00
9:55 PM,21.2,21.2,100,29.73,10.0,West,18.4,-,N/A,,Overcast,260,2013-01-02 03:55:00
10:15 PM,21.2,21.2,100,29.72,10.0,West,19.6,-,N/A,,Overcast,260,2013-01-02 04:15:00
10:35 PM,23.0,23.0,100,29.73,10.0,West,17.3,-,N/A,,Overcast,260,2013-01-02 04:35:00
10:55 PM,23.0,23.0,100,29.72,10.0,West,17.3,-,N/A,,Overcast,260,2013-01-02 04:55:00
11:15 PM,23.0,23.0,100,29.72,10.0,West,18.4,-,N/A,,Overcast,270,2013-01-02 05:15:00
11:35 PM,24.8,24.8,100,29.72,10.0,West,13.8,-,N/A,,Overcast,270,2013-01-02 05:35:00
11:55 PM,24.8,24.8,100,29.72,10.0,West,15.0,-,N/A,,Overcast,260,2013-01-02 05:55:00